Miscellaneous Local Product
Issued by NWS Hastings, NE

Home | Current Version | Previous Version | Text Only | Print | Product List | Glossary Off
Versions: 1 2 3 4 5 6 7 8 9 10 11 12 13 14 15 16 17 18 19 20 21 22 23 24 25 26 27 28 29 30 31 32 33 34 35 36 37 38 39 40 41 42 43 44 45 46 47 48 49 50

000
AXUS43 KGID 160902
MISGRI

GID CWA HOURLY WEATHER ROUNDUP
NATIONAL WEATHER SERVICE HASTINGS NE
300 AM CST SAT DEC 16 2017

NOTE: "FAIR" INDICATES FEW OR NO CLOUDS BELOW 12,000 FEET WITH NO
SIGNIFICANT WEATHER AND/OR OBSTRUCTIONS TO VISIBILITY.

...SOUTH CENTRAL NEBRASKA...

CITY           SKY/WX    TMP DP  RH WIND       PRES   REMARKS
GRAND ISLAND   CLOUDY    33  19  56 SW8       29.73R WCI  26
KEARNEY        CLOUDY    33  13  43 W6        29.74R WCI  28
HASTINGS       CLOUDY    33  15  47 SW6       29.74S WCI  28
ORD            CLOUDY    23  19  85 W3        29.71R
YORK           CLOUDY    32  21  64 SW10      29.73S WCI  24
AURORA         CLOUDY    32  20  61 SW12      29.73R WCI  23
LEXINGTON      CLOUDY    25  15  67 NW6       29.75R WCI  18
HOLDREGE       CLOUDY    32  13  45 CALM      29.74S
HEBRON         CLOUDY    36  21  54 SW3       29.78R

...NEBRASKA PANHANDLE...

CITY           SKY/WX    TMP DP  RH WIND       PRES   REMARKS
CHADRON        PTCLDY    26  16  65 SW10      29.74R WCI  16
ALLIANCE       CLOUDY    24  11  57 W5        29.74R WCI  18
SCOTTSBLUFF    CLOUDY    36   9  32 NW6       29.74S WCI  31
SIDNEY         CLOUDY    26   8  46 NW14      29.76S WCI  14

...WESTERN AND NORTH CENTRAL NEBRASKA...

CITY           SKY/WX    TMP DP  RH WIND       PRES   REMARKS
VALENTINE      CLOUDY    31  23  72 W6        29.72R WCI  25
AINSWORTH      CLOUDY    32  25  75 W8        29.71R WCI  25
ONEILL         CLOUDY    33  26  73 W6        29.70R WCI  28
BROKEN BOW     CLOUDY    40  18  41 SE3       29.73R
IMPERIAL       CLOUDY    29  13  51 CALM      29.76R
NORTH PLATTE   CLOUDY    23  17  78 W6        29.76R WCI  16
MCCOOK         CLOUDY    28  12  51 W5        29.76R WCI  23

...EASTERN NEBRASKA...

CITY           SKY/WX    TMP DP  RH WIND       PRES   REMARKS
NORFOLK        CLOUDY    27  20  75 W3        29.69R
SO SIOUX CITY  CLOUDY    26  21  81 E5        29.68R WCI  20
TEKAMAH        PTCLDY    30  19  63 S8        29.72R WCI  22
COLUMBUS       CLOUDY    32  22  66 SW3       29.73R
ALBION         CLOUDY    31  23  73 CALM      29.70R
OMAHA EPPLEY   PTCLDY    32  22  66 S9        29.74R WCI  24
OFFUTT AFB     CLEAR     31  22  69 SE8       29.74R WCI  23
MILLARD        CLEAR     43  23  45 SW6       29.74R
LINCOLN        CLEAR     35  20  54 S5        29.76S WCI  31
NEBRASKA CITY  CLEAR     40  25  55 SW15      29.77S WCI  31
BEATRICE       CLOUDY    37  24  60 S9        29.78S WCI  30
FALLS CITY     CLEAR     36  23  59 S6        29.81R WCI  31

...NORTHERN KANSAS...

CITY           SKY/WX    TMP DP  RH WIND       PRES   REMARKS
GOODLAND       CLOUDY    38  12  34 SW10      29.75F WCI  31
HILL CITY      CLOUDY    33  14  45 W6        29.77S WCI  28
NORTON         SUNNY     34   9  35 W10       29.75S WCI  26
PHILLIPSBURG   CLEAR     34  12  40 CALM      29.78R
HAYS           CLOUDY    35  18  49 SW8       29.81S WCI  29
RUSSELL        CLOUDY    32  20  61 S14       29.79S WCI  22
CONCORDIA      CLOUDY    42  21  43 SW12      29.79R
SALINA         CLEAR     38  24  57 S9        29.84S WCI  31
TOPEKA         CLEAR    N/A N/A N/A S7        29.87F



USA.gov is the U.S. government's official web portal to all federal, state and local government web resources and services.